Regional Weather Roundup
Issued by NWS

Home | Current Version | Previous Version | Graphics & Text | Print | Product List | Glossary On
Versions: 1 2 3 4 5 6 7 8 9 10 11 12 13 14 15 16 17 18 19 20 21 22 23 24 25 26 27 28 29 30 31 32 33 34 35 36 37 38 39 40 41 42 43 44 45 46 47 48 49 50
000
ASUS44 KMEG 250110
RWRTN
TENNESSEE HOURLY STATE WEATHER ROUNDUP
NATIONAL WEATHER SERVICE MEMPHIS TN
700 PM CST WED DEC 24 2014

TNZ002-004-019-021-049-052-054-088>092-250200-
WEST TENNESSEE

CITY           SKY/WX    TMP DP  RH WIND       PRES   REMARKS
MEMPHIS INTL   CLOUDY    42  36  79 W8        29.93R
NWS MEMPHIS      N/A     41 N/A N/A MISG        N/A
JACKSON        CLOUDY    41  35  79 W12       29.90R
DYERSBURG      CLOUDY    41  27  56 W7        29.90R
UNION CITY     CLOUDY    37  36  93 W7        29.85R WCI  32
PARIS          CLOUDY    37  34  87 W10       29.85R WCI  30
HUNTINGDON     CLOUDY    39  34  82 W10       29.87  WCI  32
LEXINGTON      CLOUDY    41  36  81 SW8       29.87R
SAVANNAH       CLOUDY    43  36  75 W8        29.90R
$$

TNZ008-025-027-028-033-062-065-066-250200-
NORTH MIDDLE TENNESSEE

CITY           SKY/WX    TMP DP  RH WIND       PRES   REMARKS
NASHVILLE      DRIZZLE   44  37  76 W18G26    29.83R
CLARKSVILLE    CLOUDY    41  37  86 W8        29.83R
SMYRNA         CLOUDY    44  40  86 W6        29.84R
COOKEVILLE     CLOUDY    45  41  87 W7        29.80R
CROSSVILLE     CLOUDY    42  38  85 W10       29.80R
$$

TNZ061-075-076-078-094-096-097-250200-
SOUTH MIDDLE TENNESSEE

CITY           SKY/WX    TMP DP  RH WIND       PRES   REMARKS
FAYETTEVILLE   CLOUDY    43  39  87 MISG      29.85R
TULLAHOMA      CLOUDY    43  39  87 SW5       29.83R
WINCHESTER     MOCLDY    45  41  87 W6        29.84R
MCMINNVILLE    CLOUDY    45  45 100 CALM      29.82R
COLUMBIA       CLOUDY    43  43 100 W8        29.84R
SHELBYVILLE    MOCLDY    45  41  87 W17       29.85R
$$

TNZ017-018-042-046-047-250200-
NORTHEAST TENNESSEE

CITY           SKY/WX    TMP DP  RH WIND       PRES   REMARKS
TRI CITIES     CLOUDY    51  46  83 W18G26    29.70R
ELIZABETHTON   CLOUDY    50  45  81 W14       29.71R
$$

TNZ012-013-036-069-073-074-250200-
CENTRAL EAST TENNESSEE

CITY           SKY/WX    TMP DP  RH WIND       PRES   REMARKS
KNOXVILLE      CLOUDY    47  42  83 W14       29.80R
OAK RIDGE      CLOUDY    47  39  74 SW5       29.81R
GATLINBURG     CLOUDY    46  41  81 W10       29.76R
MORRISTOWN     MOCLDY    46  43  87 W14       29.75R
$$

TNZ083-085-099-250200-
SOUTHEAST TENNESSEE

CITY           SKY/WX    TMP DP  RH WIND       PRES   REMARKS
CHATTANOOGA    CLOUDY    48  41  76 W7        29.84R
$$

SKY/WX REPORTED AS FAIR MEANS FEW OR NO CLOUDS BELOW
12 THOUSAND FEET.




USA.gov is the U.S. government's official web portal to all federal, state and local government web resources and services.